Homer, AK

12:43 PM AKST on January 20, 2017 (GMT -0900)
Homer

Weather History for PAHO - May, 2012

Change the Weather History Date:

Monday, May 28, 2012

  Actual Average Record
Temperature  
Mean Temperature 46 °F -  
Max Temperature 53 °F 53 °F 67 °F (1947)
Min Temperature 39 °F 38 °F -3 °F (1971)
Degree Days  
Heating Degree Days 19    
Moisture  
Dew Point 34 °F    
Average Humidity 61    
Maximum Humidity 86    
Minimum Humidity 48    
Precipitation  
Precipitation 0.00 in - - ()
Sea Level Pressure  
Sea Level Pressure 29.82 in    
Wind  
Wind Speed 4 mph (SE)    
Max Wind Speed 12 mph    
Max Gust Speed -    
Visibility 10 miles    
Events      
Averages and records for this station are not official NWS values.
T = Trace of Precipitation, MM = Missing Value Source: NWS Daily Summary

Daily Weather History Graph

Daily Weather History Graph

Search for Another Location

Airport or City:

Trip Planner

Search our weather history database for the weather conditions in past years. The results will help you decide how hot, cold, wet, or windy it might be!

Date:

Astronomy

May. 28, 2012 Rise Set
Actual Time 5:03 AM AKDT 11:04 PM AKDT
Civil Twilight 3:47 AM AKDT 12:21 AM AKDT
Nautical Twilight Sun does not rise Sun does not rise
Astronomical Twilight Sun does not rise Sun does not rise
Moon 1:50 PM AKDT (5/28) 2:28 AM AKDT (5/28)
Length of Visible Light 20h 33m
Length of Day
18h 00m
Waxing Crescent, 50% of the Moon is Illuminated
May 28
Waxing Crescent
May 28
First Quarter
Jun 4
Full
Jun 11
Last Quarter
Jun 19
New

Hourly Weather History & Observations

Time (AKDT) Temp. Windchill Dew Point Humidity Pressure Visibility Wind Dir Wind Speed Gust Speed Precip Events Conditions
12:53 AM 46.9 °F - 34.0 °F 61% 29.92 in 10.0 mi Calm Calm - N/A   Overcast
1:53 AM 46.0 °F 43.1 °F 34.0 °F 63% 29.92 in 10.0 mi SSE 5.8 mph - N/A   Overcast
2:53 AM 46.0 °F - 33.1 °F 61% 29.91 in 10.0 mi Calm Calm - N/A   Overcast
3:53 AM 45.0 °F - 34.0 °F 65% 29.91 in 10.0 mi Calm Calm - N/A   Overcast
4:53 AM 42.1 °F - 36.0 °F 79% 29.91 in 10.0 mi Calm Calm - N/A   Overcast
5:53 AM 39.9 °F - 36.0 °F 86% 29.90 in 10.0 mi Calm Calm - N/A   Scattered Clouds
6:53 AM 46.0 °F - 34.0 °F 63% 29.89 in 10.0 mi Calm Calm - N/A   Scattered Clouds
7:53 AM 46.9 °F - 33.1 °F 59% 29.88 in 10.0 mi East 5.8 mph - N/A   Partly Cloudy
8:53 AM 46.9 °F - 35.1 °F 63% 29.87 in 10.0 mi ESE 5.8 mph - N/A   Clear
9:53 AM 48.0 °F - 34.0 °F 58% 29.86 in 10.0 mi SW 4.6 mph - N/A   Clear
10:53 AM 48.9 °F - 32.0 °F 52% 29.85 in 10.0 mi SW 8.1 mph - N/A   Scattered Clouds
11:53 AM 48.9 °F - 35.1 °F 59% 29.83 in 10.0 mi SSW 4.6 mph - N/A   Scattered Clouds
12:53 PM 50.0 °F - 35.1 °F 57% 29.83 in 10.0 mi South 6.9 mph - N/A   Mostly Cloudy
1:53 PM 50.0 °F - 34.0 °F 54% 29.82 in 10.0 mi SE 8.1 mph - N/A   Overcast
2:53 PM 50.0 °F - 33.1 °F 52% 29.81 in 10.0 mi SE 9.2 mph - N/A   Overcast
3:53 PM 53.1 °F - 34.0 °F 48% 29.79 in 10.0 mi East 11.5 mph - N/A   Partly Cloudy
4:53 PM 51.1 °F - 34.0 °F 52% 29.78 in 10.0 mi SE 6.9 mph - N/A   Overcast
5:53 PM 51.1 °F - 35.1 °F 54% 29.76 in 10.0 mi ESE 8.1 mph - N/A   Overcast
6:53 PM 50.0 °F - 35.1 °F 57% 29.75 in 10.0 mi SE 8.1 mph - N/A   Overcast
7:53 PM 48.9 °F - 35.1 °F 59% 29.73 in 10.0 mi ESE 11.5 mph - N/A   Overcast
8:53 PM 48.0 °F - 34.0 °F 58% 29.73 in 10.0 mi ESE 11.5 mph - N/A   Overcast
9:53 PM 46.9 °F - 35.1 °F 63% 29.71 in 10.0 mi East 3.5 mph - N/A   Overcast
10:53 PM 46.0 °F 44.8 °F 35.1 °F 66% 29.71 in 10.0 mi SE 3.5 mph - N/A   Overcast
11:53 PM 45.0 °F 42.6 °F 35.1 °F 68% 29.70 in 10.0 mi NNE 4.6 mph - N/A   Overcast